Time,TemperatureF,DewpointF,PressureIn,WindDirection,WindDirectionDegrees,WindSpeedMPH,WindSpeedGustMPH,Humidity,HourlyPrecipIn,Conditions,Clouds,dailyrainin,SoftwareType,DateUTC
2013-06-02 00:00:00,61.0,51.9,29.93,NNW,333,0.0,5.0,72,0.00,,---,0.00,VWS V14.01,2013-06-02 05:00:00,
2013-06-02 00:01:00,59.9,51.6,29.94,North,355,4.0,4.0,74,0.00,,---,0.00,VWS V14.01,2013-06-02 05:01:00,
2013-06-02 00:06:00,59.8,51.9,29.94,NNW,339,3.0,9.0,75,0.00,,---,0.00,VWS V14.01,2013-06-02 05:06:00,
2013-06-02 00:11:00,59.8,51.9,29.94,NNW,329,8.0,11.0,75,0.00,,---,0.00,VWS V14.01,2013-06-02 05:11:00,
2013-06-02 00:16:00,59.6,51.7,29.94,NNW,336,8.0,11.0,75,0.00,,---,0.00,VWS V14.01,2013-06-02 05:16:00,
2013-06-02 00:21:00,59.5,51.6,29.94,North,360,0.0,11.0,75,0.00,,---,0.00,VWS V14.01,2013-06-02 05:21:00,
2013-06-02 00:26:00,59.3,51.4,29.94,NNW,346,7.0,11.0,75,0.00,,---,0.00,VWS V14.01,2013-06-02 05:26:00,
2013-06-02 00:30:00,60.5,51.8,29.95,NNW,337,2.0,6.0,73,0.00,,---,0.00,VWS V14.01,2013-06-02 05:30:00,
2013-06-02 00:31:00,59.2,51.3,29.95,NNW,346,2.0,4.0,75,0.00,,---,0.00,VWS V14.01,2013-06-02 05:31:00,
2013-06-02 00:36:00,59.2,51.3,29.95,NW,326,4.0,5.0,75,0.00,,---,0.00,VWS V14.01,2013-06-02 05:36:00,
2013-06-02 00:41:00,59.0,51.1,29.95,NW,312,2.0,6.0,75,0.00,,---,0.00,VWS V14.01,2013-06-02 05:41:00,
2013-06-02 00:46:00,58.9,51.0,29.96,NNW,331,1.0,8.0,75,0.00,,---,0.00,VWS V14.01,2013-06-02 05:46:00,
2013-06-02 00:51:00,58.7,50.8,29.96,NNW,331,3.0,8.0,75,0.00,,---,0.00,VWS V14.01,2013-06-02 05:51:00,
2013-06-02 00:56:00,58.6,50.7,29.96,NNW,327,7.0,8.0,75,0.00,,---,0.00,VWS V14.01,2013-06-02 05:56:00,
2013-06-02 01:00:00,59.9,51.6,29.94,NNW,337,0.0,9.0,74,0.00,,---,0.00,VWS V14.01,2013-06-02 06:00:00,
2013-06-02 01:01:00,58.4,50.5,29.96,NNW,347,8.0,9.0,75,0.00,,---,0.00,VWS V14.01,2013-06-02 06:01:00,
2013-06-02 01:06:00,58.4,50.5,29.96,NNW,330,7.0,10.0,75,0.00,,---,0.00,VWS V14.01,2013-06-02 06:06:00,
2013-06-02 01:11:00,58.3,50.4,29.96,North,349,4.0,10.0,75,0.00,,---,0.00,VWS V14.01,2013-06-02 06:11:00,
2013-06-02 01:16:00,58.1,50.2,29.96,North,360,5.0,12.0,75,0.00,,---,0.00,VWS V14.01,2013-06-02 06:16:00,
2013-06-02 01:21:00,58.1,50.6,29.96,NNW,329,1.0,12.0,76,0.00,,---,0.00,VWS V14.01,2013-06-02 06:21:00,
2013-06-02 01:26:00,58.1,50.6,29.96,NW,316,6.0,12.0,76,0.00,,---,0.00,VWS V14.01,2013-06-02 06:26:00,
2013-06-02 01:30:00,59.2,51.3,29.95,NNW,344,0.0,11.0,75,0.00,,---,0.00,VWS V14.01,2013-06-02 06:30:00,
2013-06-02 01:31:00,58.1,50.6,29.97,NNW,334,3.0,4.0,76,0.00,,---,0.00,VWS V14.01,2013-06-02 06:31:00,
2013-06-02 01:36:00,58.3,50.8,29.97,North,350,7.0,8.0,76,0.00,,---,0.00,VWS V14.01,2013-06-02 06:36:00,
2013-06-02 01:41:00,58.3,50.8,29.97,NNW,334,4.0,8.0,76,0.00,,---,0.00,VWS V14.01,2013-06-02 06:41:00,
2013-06-02 01:46:00,58.3,50.8,29.97,NNW,348,4.0,8.0,76,0.00,,---,0.00,VWS V14.01,2013-06-02 06:46:00,
2013-06-02 01:51:00,58.3,50.8,29.97,NW,320,2.0,8.0,76,0.00,,---,0.00,VWS V14.01,2013-06-02 06:51:00,
2013-06-02 01:56:00,58.3,50.8,29.97,North,355,0.0,9.0,76,0.00,,---,0.00,VWS V14.01,2013-06-02 06:56:00,
2013-06-02 02:00:00,58.4,50.5,29.96,NNW,340,2.0,9.0,75,0.00,,---,0.00,VWS V14.01,2013-06-02 07:00:00,
2013-06-02 02:01:00,58.3,50.8,29.96,NW,321,4.0,6.0,76,0.00,,---,0.00,VWS V14.01,2013-06-02 07:01:00,
2013-06-02 02:06:00,58.1,50.6,29.96,NNW,340,5.0,6.0,76,0.00,,---,0.00,VWS V14.01,2013-06-02 07:06:00,
2013-06-02 02:11:00,58.1,50.9,29.96,NNW,343,1.0,7.0,77,0.00,,---,0.00,VWS V14.01,2013-06-02 07:11:00,
2013-06-02 02:16:00,58.0,50.8,29.97,NNW,339,0.0,7.0,77,0.00,,---,0.00,VWS V14.01,2013-06-02 07:16:00,
2013-06-02 02:21:00,58.0,50.8,29.97,NNE,17,0.0,7.0,77,0.00,,---,0.00,VWS V14.01,2013-06-02 07:21:00,
2013-06-02 02:26:00,58.0,50.8,29.97,North,360,8.0,10.0,77,0.00,,---,0.00,VWS V14.01,2013-06-02 07:26:00,
2013-06-02 02:30:00,58.1,50.6,29.97,NNW,331,2.0,12.0,76,0.00,,---,0.00,VWS V14.01,2013-06-02 07:30:00,
2013-06-02 02:31:00,58.0,50.8,29.97,NNW,336,1.0,3.0,77,0.00,,---,0.00,VWS V14.01,2013-06-02 07:31:00,
2013-06-02 02:36:00,58.0,50.8,29.97,NW,324,6.0,7.0,77,0.00,,---,0.00,VWS V14.01,2013-06-02 07:36:00,
2013-06-02 02:41:00,57.8,50.7,29.97,NNW,333,2.0,9.0,77,0.00,,---,0.00,VWS V14.01,2013-06-02 07:41:00,
2013-06-02 02:46:00,57.8,50.3,29.97,NW,326,1.0,9.0,76,0.00,,---,0.00,VWS V14.01,2013-06-02 07:46:00,
2013-06-02 02:51:00,57.8,50.3,29.97,NW,320,1.0,10.0,76,0.00,,---,0.00,VWS V14.01,2013-06-02 07:51:00,
2013-06-02 02:56:00,57.6,50.1,29.97,WNW,291,4.0,10.0,76,0.00,,---,0.00,VWS V14.01,2013-06-02 07:56:00,
2013-06-02 03:00:00,58.3,50.8,29.96,NNW,339,4.0,9.0,76,0.00,,---,0.00,VWS V14.01,2013-06-02 08:00:00,
2013-06-02 03:01:00,57.6,50.1,29.97,North,360,1.0,6.0,76,0.00,,---,0.00,VWS V14.01,2013-06-02 08:01:00,
2013-06-02 03:06:00,57.3,49.8,29.97,NNW,336,3.0,9.0,76,0.00,,---,0.00,VWS V14.01,2013-06-02 08:06:00,
2013-06-02 03:11:00,57.2,49.7,29.97,NNW,339,2.0,9.0,76,0.00,,---,0.00,VWS V14.01,2013-06-02 08:11:00,
2013-06-02 03:16:00,57.0,49.5,29.97,North,5,7.0,9.0,76,0.00,,---,0.00,VWS V14.01,2013-06-02 08:16:00,
2013-06-02 03:21:00,57.0,49.5,29.97,North,355,3.0,10.0,76,0.00,,---,0.00,VWS V14.01,2013-06-02 08:21:00,
2013-06-02 03:26:00,57.0,49.5,29.97,NW,326,3.0,10.0,76,0.00,,---,0.00,VWS V14.01,2013-06-02 08:26:00,
2013-06-02 03:30:00,58.0,50.8,29.97,NNW,336,3.0,10.0,77,0.00,,---,0.00,VWS V14.01,2013-06-02 08:30:00,
2013-06-02 03:31:00,56.9,49.4,29.97,NNW,330,5.0,6.0,76,0.00,,---,0.00,VWS V14.01,2013-06-02 08:31:00,
2013-06-02 03:36:00,56.9,49.4,29.97,NNW,331,6.0,11.0,76,0.00,,---,0.00,VWS V14.01,2013-06-02 08:36:00,
2013-06-02 03:41:00,56.9,49.4,29.97,North,5,3.0,11.0,76,0.00,,---,0.00,VWS V14.01,2013-06-02 08:41:00,
2013-06-02 03:46:00,56.9,49.4,29.97,NNW,344,2.0,11.0,76,0.00,,---,0.00,VWS V14.01,2013-06-02 08:46:00,
2013-06-02 03:51:00,56.9,49.4,29.97,North,349,2.0,11.0,76,0.00,,---,0.00,VWS V14.01,2013-06-02 08:51:00,
2013-06-02 03:56:00,56.9,49.4,29.97,NW,318,4.0,11.0,76,0.00,,---,0.00,VWS V14.01,2013-06-02 08:56:00,
2013-06-02 04:00:00,56.9,49.4,29.98,NNW,340,3.0,3.0,76,0.00,,---,0.00,VWS V14.01,2013-06-02 09:00:00,
2013-06-02 04:06:00,56.7,49.2,29.98,NNW,343,2.0,6.0,76,0.00,,---,0.00,VWS V14.01,2013-06-02 09:06:00,
2013-06-02 04:10:00,56.7,49.2,29.98,North,5,2.0,8.0,76,0.00,,---,0.00,VWS V14.01,2013-06-02 09:10:00,
2013-06-02 04:15:00,56.7,49.2,29.98,NNW,334,8.0,8.0,76,0.00,,---,0.00,VWS V14.01,2013-06-02 09:15:00,
2013-06-02 04:20:00,56.7,49.2,29.98,NNW,339,5.0,8.0,76,0.00,,---,0.00,VWS V14.01,2013-06-02 09:20:00,
2013-06-02 04:25:00,56.6,49.1,29.98,NW,326,6.0,8.0,76,0.00,,---,0.00,VWS V14.01,2013-06-02 09:25:00,
2013-06-02 04:30:00,56.6,49.5,29.98,North,355,1.0,5.0,77,0.00,,---,0.00,VWS V14.01,2013-06-02 09:30:00,
2013-06-02 04:35:00,56.5,49.4,29.98,NNW,342,4.0,5.0,77,0.00,,---,0.00,VWS V14.01,2013-06-02 09:35:00,
2013-06-02 04:40:00,56.5,49.4,29.98,NNW,336,4.0,8.0,77,0.00,,---,0.00,VWS V14.01,2013-06-02 09:40:00,
2013-06-02 04:45:00,56.5,49.4,29.99,NNW,331,1.0,8.0,77,0.00,,---,0.00,VWS V14.01,2013-06-02 09:45:00,
2013-06-02 04:50:00,56.3,49.2,29.99,NNW,327,7.0,9.0,77,0.00,,---,0.00,VWS V14.01,2013-06-02 09:50:00,
2013-06-02 04:55:00,56.3,49.2,29.99,NNW,339,4.0,9.0,77,0.00,,---,0.00,VWS V14.01,2013-06-02 09:55:00,
2013-06-02 05:00:00,56.3,49.2,29.99,North,5,3.0,7.0,77,0.00,,---,0.00,VWS V14.01,2013-06-02 10:00:00,
2013-06-02 05:05:00,56.2,49.1,29.99,NNW,343,5.0,9.0,77,0.00,,---,0.00,VWS V14.01,2013-06-02 10:05:00,
2013-06-02 05:10:00,56.2,49.1,29.99,NNW,332,7.0,10.0,77,0.00,,---,0.00,VWS V14.01,2013-06-02 10:10:00,
2013-06-02 05:15:00,56.0,48.9,29.98,NNW,330,6.0,10.0,77,0.00,,---,0.00,VWS V14.01,2013-06-02 10:15:00,
2013-06-02 05:20:00,56.0,49.2,29.98,NW,313,2.0,10.0,78,0.00,,---,0.00,VWS V14.01,2013-06-02 10:20:00,
2013-06-02 05:25:00,56.0,49.2,29.98,NNW,337,4.0,10.0,78,0.00,,---,0.00,VWS V14.01,2013-06-02 10:25:00,
2013-06-02 05:30:00,55.9,49.2,30.00,West,279,1.0,2.0,78,0.00,,---,0.00,VWS V14.01,2013-06-02 10:30:00,
2013-06-02 05:35:00,55.9,49.2,30.00,North,360,4.0,8.0,78,0.00,,---,0.00,VWS V14.01,2013-06-02 10:35:00,
2013-06-02 05:40:00,55.9,49.2,30.00,NNW,341,5.0,12.0,78,0.00,,---,0.00,VWS V14.01,2013-06-02 10:40:00,
2013-06-02 05:45:00,55.7,49.0,29.99,NW,317,0.0,12.0,78,0.00,,---,0.00,VWS V14.01,2013-06-02 10:45:00,
2013-06-02 05:50:00,55.6,48.9,29.99,NW,304,3.0,12.0,78,0.00,,---,0.00,VWS V14.01,2013-06-02 10:50:00,
2013-06-02 05:55:00,55.6,48.9,29.99,NNW,338,5.0,12.0,78,0.00,,---,0.00,VWS V14.01,2013-06-02 10:55:00,
2013-06-02 06:00:00,55.4,48.7,30.00,NNW,333,1.0,1.0,78,0.00,,---,0.00,VWS V14.01,2013-06-02 11:00:00,
2013-06-02 06:05:00,55.4,48.7,30.00,NNW,335,1.0,5.0,78,0.00,,---,0.00,VWS V14.01,2013-06-02 11:05:00,
2013-06-02 06:10:00,55.4,48.7,30.00,NNW,335,5.0,9.0,78,0.00,,---,0.00,VWS V14.01,2013-06-02 11:10:00,
2013-06-02 06:15:00,55.4,49.0,30.00,NW,307,3.0,9.0,79,0.00,,---,0.00,VWS V14.01,2013-06-02 11:15:00,
2013-06-02 06:20:00,55.3,48.9,30.00,NNW,332,2.0,9.0,79,0.00,,---,0.00,VWS V14.01,2013-06-02 11:20:00,
2013-06-02 06:25:00,55.3,48.9,30.00,North,355,1.0,9.0,79,0.00,,---,0.00,VWS V14.01,2013-06-02 11:25:00,
2013-06-02 06:30:00,55.3,48.9,30.00,NW,313,2.0,3.0,79,0.00,,---,0.00,VWS V14.01,2013-06-02 11:30:00,
2013-06-02 06:35:00,55.3,48.9,30.00,NNW,340,3.0,7.0,79,0.00,,---,0.00,VWS V14.01,2013-06-02 11:35:00,
2013-06-02 06:40:00,55.3,48.9,30.00,North,349,3.0,7.0,79,0.00,,---,0.00,VWS V14.01,2013-06-02 11:40:00,
2013-06-02 06:45:00,55.3,49.2,30.01,NNW,344,1.0,7.0,80,0.00,,---,0.00,VWS V14.01,2013-06-02 11:45:00,
2013-06-02 06:50:00,55.3,49.2,30.01,NNW,346,1.0,8.0,80,0.00,,---,0.00,VWS V14.01,2013-06-02 11:50:00,
2013-06-02 06:55:00,55.3,49.2,30.01,NW,317,1.0,8.0,80,0.00,,---,0.00,VWS V14.01,2013-06-02 11:55:00,
2013-06-02 07:00:00,55.3,49.2,30.02,NW,324,0.0,0.0,80,0.00,,---,0.00,VWS V14.01,2013-06-02 12:00:00,
2013-06-02 07:05:00,55.4,49.3,30.02,NNW,329,2.0,4.0,80,0.00,,---,0.00,VWS V14.01,2013-06-02 12:05:00,
2013-06-02 07:10:00,55.4,49.3,30.02,NNW,331,1.0,6.0,80,0.00,,---,0.00,VWS V14.01,2013-06-02 12:10:00,
2013-06-02 07:15:00,55.6,49.5,30.02,NNE,15,3.0,6.0,80,0.00,,---,0.00,VWS V14.01,2013-06-02 12:15:00,
2013-06-02 07:20:00,55.6,49.5,30.02,North,360,4.0,6.0,80,0.00,,---,0.00,VWS V14.01,2013-06-02 12:20:00,
2013-06-02 07:25:00,55.6,49.9,30.02,North,5,1.0,7.0,81,0.00,,---,0.00,VWS V14.01,2013-06-02 12:25:00,
2013-06-02 07:30:00,55.6,49.5,30.02,NNW,348,5.0,10.0,80,0.00,,---,0.00,VWS V14.01,2013-06-02 12:30:00,
2013-06-02 07:35:00,55.4,49.7,30.02,NNE,14,6.0,10.0,81,0.00,,---,0.00,VWS V14.01,2013-06-02 12:35:00,
2013-06-02 07:40:00,55.4,49.7,30.02,NNW,344,6.0,10.0,81,0.00,,---,0.00,VWS V14.01,2013-06-02 12:40:00,
2013-06-02 07:45:00,55.4,49.7,30.03,NNW,331,3.0,10.0,81,0.00,,---,0.00,VWS V14.01,2013-06-02 12:45:00,
2013-06-02 07:50:00,55.4,49.7,30.03,NNW,340,1.0,10.0,81,0.00,,---,0.00,VWS V14.01,2013-06-02 12:50:00,
2013-06-02 07:55:00,55.6,49.9,30.03,NNW,334,1.0,10.0,81,0.00,,---,0.00,VWS V14.01,2013-06-02 12:55:00,
2013-06-02 08:00:00,55.6,49.9,30.03,NNW,341,4.0,10.0,81,0.00,,---,0.00,VWS V14.01,2013-06-02 13:00:00,
2013-06-02 08:05:00,55.6,49.9,30.03,NW,323,0.0,5.0,81,0.00,,---,0.00,VWS V14.01,2013-06-02 13:05:00,
2013-06-02 08:10:00,55.6,49.9,30.03,NNW,336,1.0,7.0,81,0.00,,---,0.00,VWS V14.01,2013-06-02 13:10:00,
2013-06-02 08:15:00,55.7,50.0,30.03,NW,326,0.0,7.0,81,0.00,,---,0.00,VWS V14.01,2013-06-02 13:15:00,
2013-06-02 08:20:00,55.7,50.3,30.03,North,360,4.0,7.0,82,0.00,,---,0.00,VWS V14.01,2013-06-02 13:20:00,
2013-06-02 08:25:00,55.4,50.0,30.03,North,351,1.0,7.0,82,0.00,,---,0.00,VWS V14.01,2013-06-02 13:25:00,
2013-06-02 08:30:00,55.3,49.9,30.04,NNW,343,5.0,7.0,82,0.00,,---,0.00,VWS V14.01,2013-06-02 13:30:00,
2013-06-02 08:35:00,55.0,49.6,30.04,NNW,334,5.0,8.0,82,0.00,,---,0.00,VWS V14.01,2013-06-02 13:35:00,
2013-06-02 08:40:00,54.8,49.4,30.04,NNW,344,2.0,8.0,82,0.00,,---,0.00,VWS V14.01,2013-06-02 13:40:00,
2013-06-02 08:45:00,54.7,49.7,30.04,North,355,1.0,8.0,83,0.00,,---,0.00,VWS V14.01,2013-06-02 13:45:00,
2013-06-02 08:50:00,54.7,49.7,30.04,North,9,2.0,8.0,83,0.00,,---,0.00,VWS V14.01,2013-06-02 13:50:00,
2013-06-02 08:55:00,54.8,50.1,30.04,North,360,1.0,8.0,84,0.00,,---,0.00,VWS V14.01,2013-06-02 13:55:00,
2013-06-02 09:00:00,55.0,50.3,30.05,North,355,3.0,8.0,84,0.00,,---,0.00,VWS V14.01,2013-06-02 14:00:00,
2013-06-02 09:05:00,55.1,50.4,30.05,NNW,342,1.0,5.0,84,0.00,,---,0.00,VWS V14.01,2013-06-02 14:05:00,
2013-06-02 09:10:00,55.3,50.6,30.05,NW,311,3.0,6.0,84,0.00,,---,0.00,VWS V14.01,2013-06-02 14:10:00,
2013-06-02 09:15:00,55.3,50.6,30.05,NNW,331,3.0,7.0,84,0.00,,---,0.00,VWS V14.01,2013-06-02 14:15:00,
2013-06-02 09:20:00,55.3,50.6,30.05,NNW,340,4.0,7.0,84,0.00,,---,0.00,VWS V14.01,2013-06-02 14:20:00,
2013-06-02 09:25:00,55.6,50.8,30.05,NNW,343,2.0,8.0,84,0.00,,---,0.00,VWS V14.01,2013-06-02 14:25:00,
2013-06-02 09:30:00,55.9,51.1,30.04,NNW,344,2.0,8.0,84,0.00,,---,0.00,VWS V14.01,2013-06-02 14:30:00,
2013-06-02 09:35:00,56.0,51.2,30.04,North,11,6.0,9.0,84,0.00,,---,0.00,VWS V14.01,2013-06-02 14:35:00,
2013-06-02 09:40:00,56.2,51.1,30.04,NNE,19,6.0,9.0,83,0.00,,---,0.00,VWS V14.01,2013-06-02 14:40:00,
2013-06-02 09:45:00,56.2,51.1,30.04,NNE,30,4.0,9.0,83,0.00,,---,0.00,VWS V14.01,2013-06-02 14:45:00,
2013-06-02 09:50:00,56.3,51.2,30.04,North,5,4.0,9.0,83,0.00,,---,0.00,VWS V14.01,2013-06-02 14:50:00,
2013-06-02 09:55:00,56.2,51.1,30.04,North,10,3.0,9.0,83,0.00,,---,0.00,VWS V14.01,2013-06-02 14:55:00,
2013-06-02 10:00:00,56.3,51.2,30.05,North,355,7.0,10.0,83,0.00,,---,0.00,VWS V14.01,2013-06-02 15:00:00,
2013-06-02 10:05:00,56.2,51.1,30.05,NNW,343,1.0,12.0,83,0.00,,---,0.00,VWS V14.01,2013-06-02 15:05:00,
2013-06-02 10:10:00,56.0,50.9,30.05,NNW,346,2.0,12.0,83,0.00,,---,0.00,VWS V14.01,2013-06-02 15:10:00,
2013-06-02 10:15:00,55.9,50.8,30.05,NNW,346,7.0,12.0,83,0.00,,---,0.00,VWS V14.01,2013-06-02 15:15:00,
2013-06-02 10:20:00,55.9,50.8,30.05,North,350,5.0,12.0,83,0.00,,---,0.00,VWS V14.01,2013-06-02 15:20:00,
2013-06-02 10:25:00,55.9,50.8,30.05,North,360,5.0,12.0,83,0.00,,---,0.00,VWS V14.01,2013-06-02 15:25:00,
2013-06-02 10:30:00,55.9,50.8,30.05,NW,320,2.0,12.0,83,0.00,,---,0.00,VWS V14.01,2013-06-02 15:30:00,
2013-06-02 10:35:00,56.0,50.9,30.05,NNE,32,3.0,9.0,83,0.00,,---,0.00,VWS V14.01,2013-06-02 15:35:00,
2013-06-02 10:40:00,56.2,51.1,30.05,North,5,5.0,9.0,83,0.00,,---,0.00,VWS V14.01,2013-06-02 15:40:00,
2013-06-02 10:45:00,56.5,51.4,30.05,NNE,22,3.0,9.0,83,0.00,,---,0.00,VWS V14.01,2013-06-02 15:45:00,
2013-06-02 10:50:00,56.7,51.6,30.05,NNW,339,3.0,9.0,83,0.00,,---,0.00,VWS V14.01,2013-06-02 15:50:00,
2013-06-02 10:55:00,56.9,52.4,30.05,NNW,346,5.0,9.0,85,0.00,,---,0.00,VWS V14.01,2013-06-02 15:55:00,
2013-06-02 11:00:00,57.0,51.6,30.05,NNW,342,4.0,9.0,82,0.00,,---,0.00,VWS V14.01,2013-06-02 16:00:00,
2013-06-02 11:05:00,57.0,51.6,30.05,NNW,346,0.0,6.0,82,0.00,,---,0.00,VWS V14.01,2013-06-02 16:05:00,
2013-06-02 11:10:00,57.0,51.6,30.05,North,9,4.0,6.0,82,0.00,,---,0.00,VWS V14.01,2013-06-02 16:10:00,
2013-06-02 11:15:00,57.3,51.9,30.06,NNW,333,2.0,6.0,82,0.00,,---,0.00,VWS V14.01,2013-06-02 16:15:00,
2013-06-02 11:20:00,57.8,52.3,30.06,North,351,3.0,7.0,82,0.00,,---,0.00,VWS V14.01,2013-06-02 16:20:00,
2013-06-02 11:25:00,58.1,52.3,30.06,NNW,336,0.0,8.0,81,0.00,,---,0.00,VWS V14.01,2013-06-02 16:25:00,
2013-06-02 11:30:00,58.3,52.2,30.06,NNW,345,5.0,8.0,80,0.00,,---,0.00,VWS V14.01,2013-06-02 16:30:00,
2013-06-02 11:35:00,58.3,52.2,30.06,NW,326,4.0,8.0,80,0.00,,---,0.00,VWS V14.01,2013-06-02 16:35:00,
2013-06-02 11:40:00,58.3,52.2,30.06,NNW,344,3.0,8.0,80,0.00,,---,0.00,VWS V14.01,2013-06-02 16:40:00,
2013-06-02 11:45:00,58.1,52.0,30.06,NW,319,5.0,10.0,80,0.00,,---,0.00,VWS V14.01,2013-06-02 16:45:00,
2013-06-02 11:50:00,57.8,51.3,30.06,North,355,3.0,10.0,79,0.00,,---,0.00,VWS V14.01,2013-06-02 16:50:00,
2013-06-02 11:55:00,57.8,51.3,30.06,North,9,6.0,10.0,79,0.00,,---,0.00,VWS V14.01,2013-06-02 16:55:00,
2013-06-02 12:00:00,57.8,51.3,30.06,North,355,4.0,10.0,79,0.00,,---,0.00,VWS V14.01,2013-06-02 17:00:00,
2013-06-02 12:05:00,58.3,51.8,30.06,North,355,6.0,7.0,79,0.00,,---,0.00,VWS V14.01,2013-06-02 17:05:00,
2013-06-02 12:10:00,58.7,52.2,30.06,NNE,28,6.0,7.0,79,0.00,,---,0.00,VWS V14.01,2013-06-02 17:10:00,
2013-06-02 12:15:00,59.2,52.7,30.06,NNW,338,3.0,8.0,79,0.00,,---,0.00,VWS V14.01,2013-06-02 17:15:00,
2013-06-02 12:20:00,59.3,52.5,30.06,West,276,6.0,10.0,78,0.00,,---,0.00,VWS V14.01,2013-06-02 17:20:00,
2013-06-02 12:25:00,59.3,52.5,30.06,NNW,345,3.0,10.0,78,0.00,,---,0.00,VWS V14.01,2013-06-02 17:25:00,
2013-06-02 12:30:00,59.2,52.3,30.07,North,355,2.0,10.0,78,0.00,,---,0.00,VWS V14.01,2013-06-02 17:30:00,
2013-06-02 12:35:00,59.2,52.3,30.07,NNW,344,6.0,9.0,78,0.00,,---,0.00,VWS V14.01,2013-06-02 17:35:00,
2013-06-02 12:40:00,59.0,52.2,30.07,North,355,6.0,9.0,78,0.00,,---,0.00,VWS V14.01,2013-06-02 17:40:00,
2013-06-02 12:45:00,59.0,52.2,30.07,NNW,339,0.0,9.0,78,0.00,,---,0.00,VWS V14.01,2013-06-02 17:45:00,
2013-06-02 12:50:00,59.0,52.2,30.07,NNW,337,2.0,9.0,78,0.00,,---,0.00,VWS V14.01,2013-06-02 17:50:00,
2013-06-02 12:55:00,59.0,51.8,30.07,NNW,333,3.0,9.0,77,0.00,,---,0.00,VWS V14.01,2013-06-02 17:55:00,
2013-06-02 13:00:00,59.0,51.8,30.07,NNW,329,1.0,9.0,77,0.00,,---,0.00,VWS V14.01,2013-06-02 18:00:00,
2013-06-02 13:05:00,59.0,51.8,30.07,NNW,333,1.0,4.0,77,0.00,,---,0.00,VWS V14.01,2013-06-02 18:05:00,
2013-06-02 13:10:00,59.0,51.8,30.07,NW,323,2.0,5.0,77,0.00,,---,0.00,VWS V14.01,2013-06-02 18:10:00,
2013-06-02 13:15:00,59.2,52.0,30.07,NNW,340,3.0,6.0,77,0.00,,---,0.00,VWS V14.01,2013-06-02 18:15:00,
2013-06-02 13:20:00,59.3,52.1,30.07,NNW,334,0.0,6.0,77,0.00,,---,0.00,VWS V14.01,2013-06-02 18:20:00,
2013-06-02 13:25:00,59.5,51.9,30.07,NNW,335,2.0,7.0,76,0.00,,---,0.00,VWS V14.01,2013-06-02 18:25:00,
2013-06-02 13:30:00,59.8,52.2,30.07,North,350,2.0,7.0,76,0.00,,---,0.00,VWS V14.01,2013-06-02 18:30:00,
2013-06-02 13:35:00,59.9,52.3,30.07,North,360,1.0,5.0,76,0.00,,---,0.00,VWS V14.01,2013-06-02 18:35:00,
2013-06-02 13:40:00,60.2,52.6,30.07,NNW,338,3.0,5.0,76,0.00,,---,0.00,VWS V14.01,2013-06-02 18:40:00,
2013-06-02 13:45:00,60.5,52.9,30.06,NNW,344,3.0,6.0,76,0.00,,---,0.00,VWS V14.01,2013-06-02 18:45:00,
2013-06-02 13:50:00,60.5,52.5,30.06,NNW,338,1.0,8.0,75,0.00,,---,0.00,VWS V14.01,2013-06-02 18:50:00,
2013-06-02 13:55:00,60.5,52.5,30.06,North,360,5.0,8.0,75,0.00,,---,0.00,VWS V14.01,2013-06-02 18:55:00,
2013-06-02 14:00:00,60.2,52.3,30.06,NNW,338,6.0,8.0,75,0.00,,---,0.00,VWS V14.01,2013-06-02 19:00:00,
2013-06-02 14:05:00,60.1,52.2,30.06,North,355,4.0,5.0,75,0.00,,---,0.00,VWS V14.01,2013-06-02 19:05:00,
2013-06-02 14:10:00,60.1,52.2,30.06,NNE,27,0.0,5.0,75,0.00,,---,0.00,VWS V14.01,2013-06-02 19:10:00,
2013-06-02 14:15:00,60.2,52.3,30.06,NNW,338,1.0,5.0,75,0.00,,---,0.00,VWS V14.01,2013-06-02 19:15:00,
2013-06-02 14:20:00,60.5,52.2,30.06,NW,317,3.0,6.0,74,0.00,,---,0.00,VWS V14.01,2013-06-02 19:20:00,
2013-06-02 14:25:00,60.5,52.2,30.06,NNW,331,0.0,6.0,74,0.00,,---,0.00,VWS V14.01,2013-06-02 19:25:00,
2013-06-02 14:30:00,60.7,52.4,30.06,North,355,6.0,8.0,74,0.00,,---,0.00,VWS V14.01,2013-06-02 19:30:00,
2013-06-02 14:35:00,60.7,52.0,30.06,NNW,347,0.0,7.0,73,0.00,,---,0.00,VWS V14.01,2013-06-02 19:35:00,
2013-06-02 14:40:00,60.9,52.2,30.06,NNW,342,2.0,8.0,73,0.00,,---,0.00,VWS V14.01,2013-06-02 19:40:00,
2013-06-02 14:45:00,61.0,52.3,30.06,NNW,334,2.0,8.0,73,0.00,,---,0.00,VWS V14.01,2013-06-02 19:45:00,
2013-06-02 14:50:00,61.2,52.5,30.06,NNW,329,1.0,8.0,73,0.00,,---,0.00,VWS V14.01,2013-06-02 19:50:00,
2013-06-02 14:55:00,61.3,52.6,30.06,NNW,337,4.0,9.0,73,0.00,,---,0.00,VWS V14.01,2013-06-02 19:55:00,
2013-06-02 15:00:00,61.5,52.4,30.06,NNE,26,6.0,9.0,72,0.00,,---,0.00,VWS V14.01,2013-06-02 20:00:00,
2013-06-02 15:05:00,61.6,52.5,30.06,North,355,7.0,8.0,72,0.00,,---,0.00,VWS V14.01,2013-06-02 20:05:00,
2013-06-02 15:10:00,62.1,53.0,30.06,NNW,343,8.0,8.0,72,0.00,,---,0.00,VWS V14.01,2013-06-02 20:10:00,
2013-06-02 15:15:00,62.4,53.3,30.06,North,350,9.0,9.0,72,0.00,,---,0.00,VWS V14.01,2013-06-02 20:15:00,
2013-06-02 15:20:00,62.7,53.2,30.06,NW,323,3.0,9.0,71,0.00,,---,0.00,VWS V14.01,2013-06-02 20:20:00,
2013-06-02 15:25:00,63.1,53.6,30.06,NNW,338,5.0,9.0,71,0.00,,---,0.00,VWS V14.01,2013-06-02 20:25:00,
2013-06-02 15:30:00,62.9,53.0,30.05,NNW,348,5.0,9.0,70,0.00,,---,0.00,VWS V14.01,2013-06-02 20:30:00,
2013-06-02 15:35:00,62.6,52.7,30.05,North,9,6.0,8.0,70,0.00,,---,0.00,VWS V14.01,2013-06-02 20:35:00,
2013-06-02 15:40:00,62.1,51.8,30.05,North,360,7.0,10.0,69,0.00,,---,0.00,VWS V14.01,2013-06-02 20:40:00,
2013-06-02 15:45:00,61.8,51.5,30.05,North,5,5.0,10.0,69,0.00,,---,0.00,VWS V14.01,2013-06-02 20:45:00,
2013-06-02 15:50:00,61.5,50.8,30.05,NNW,336,4.0,10.0,68,0.00,,---,0.00,VWS V14.01,2013-06-02 20:50:00,
2013-06-02 15:55:00,62.0,51.3,30.05,WNW,287,3.0,10.0,68,0.00,,---,0.00,VWS V14.01,2013-06-02 20:55:00,
2013-06-02 16:00:00,62.6,51.9,30.04,North,5,5.0,10.0,68,0.00,,---,0.00,VWS V14.01,2013-06-02 21:00:00,
2013-06-02 16:05:00,62.7,52.0,30.04,North,360,4.0,7.0,68,0.00,,---,0.00,VWS V14.01,2013-06-02 21:05:00,
2013-06-02 16:10:00,62.3,51.2,30.04,North,355,4.0,10.0,67,0.00,,---,0.00,VWS V14.01,2013-06-02 21:10:00,
2013-06-02 16:15:00,62.0,50.9,30.04,North,350,3.0,10.0,67,0.00,,---,0.00,VWS V14.01,2013-06-02 21:15:00,
2013-06-02 16:20:00,61.8,50.7,30.04,NNW,340,0.0,10.0,67,0.00,,---,0.00,VWS V14.01,2013-06-02 21:20:00,
2013-06-02 16:25:00,62.1,51.0,30.04,NNE,17,5.0,10.0,67,0.00,,---,0.00,VWS V14.01,2013-06-02 21:25:00,
2013-06-02 16:30:00,61.8,50.3,30.04,North,350,6.0,10.0,66,0.00,,---,0.00,VWS V14.01,2013-06-02 21:30:00,
2013-06-02 16:35:00,61.5,50.0,30.04,NNE,24,3.0,8.0,66,0.00,,---,0.00,VWS V14.01,2013-06-02 21:35:00,
2013-06-02 16:40:00,61.6,50.1,30.04,NE,36,0.0,8.0,66,0.00,,---,0.00,VWS V14.01,2013-06-02 21:40:00,
2013-06-02 16:45:00,61.6,50.1,30.04,NNE,19,1.0,8.0,66,0.00,,---,0.00,VWS V14.01,2013-06-02 21:45:00,
2013-06-02 16:50:00,61.6,50.1,30.04,North,9,4.0,8.0,66,0.00,,---,0.00,VWS V14.01,2013-06-02 21:50:00,
2013-06-02 16:55:00,62.0,50.5,30.04,North,360,7.0,8.0,66,0.00,,---,0.00,VWS V14.01,2013-06-02 21:55:00,
2013-06-02 17:00:00,62.0,50.1,30.03,NNE,12,8.0,9.0,65,0.00,,---,0.00,VWS V14.01,2013-06-02 22:00:00,
2013-06-02 17:05:00,61.6,49.7,30.03,NNW,327,3.0,8.0,65,0.00,,---,0.00,VWS V14.01,2013-06-02 22:05:00,
2013-06-02 17:10:00,61.8,49.9,30.03,NNE,29,3.0,9.0,65,0.00,,---,0.00,VWS V14.01,2013-06-02 22:10:00,
2013-06-02 17:15:00,61.8,49.9,30.02,NNE,19,3.0,9.0,65,0.00,,---,0.00,VWS V14.01,2013-06-02 22:15:00,
2013-06-02 17:20:00,61.6,49.7,30.02,NW,323,1.0,9.0,65,0.00,,---,0.00,VWS V14.01,2013-06-02 22:20:00,
2013-06-02 17:25:00,61.6,49.7,30.02,North,360,3.0,9.0,65,0.00,,---,0.00,VWS V14.01,2013-06-02 22:25:00,
2013-06-02 17:30:00,61.8,49.5,30.02,NE,42,3.0,9.0,64,0.00,,---,0.00,VWS V14.01,2013-06-02 22:30:00,
2013-06-02 17:35:00,62.1,49.8,30.02,NNW,348,3.0,7.0,64,0.00,,---,0.00,VWS V14.01,2013-06-02 22:35:00,
2013-06-02 17:39:00,62.4,50.1,30.02,NNW,340,5.0,9.0,64,0.00,,---,0.00,VWS V14.01,2013-06-02 22:39:00,
2013-06-02 17:44:00,62.9,50.5,30.01,NNW,345,1.0,9.0,64,0.00,,---,0.00,VWS V14.01,2013-06-02 22:44:00,
2013-06-02 17:49:00,63.2,50.4,30.01,North,355,4.0,9.0,63,0.00,,---,0.00,VWS V14.01,2013-06-02 22:49:00,
2013-06-02 17:54:00,63.1,50.3,30.01,North,355,5.0,9.0,63,0.00,,---,0.00,VWS V14.01,2013-06-02 22:54:00,
2013-06-02 17:59:00,62.9,49.7,30.02,NE,36,6.0,10.0,62,0.00,,---,0.00,VWS V14.01,2013-06-02 22:59:00,
2013-06-02 18:00:00,61.8,49.9,30.03,NNW,343,5.0,9.0,65,0.00,,---,0.00,VWS V14.01,2013-06-02 23:00:00,
2013-06-02 18:04:00,62.9,49.7,30.02,NNW,338,5.0,7.0,62,0.00,,---,0.00,VWS V14.01,2013-06-02 23:04:00,
2013-06-02 18:09:00,62.7,49.5,30.02,North,5,5.0,8.0,62,0.00,,---,0.00,VWS V14.01,2013-06-02 23:09:00,
2013-06-02 18:14:00,62.6,49.4,30.01,NNW,345,4.0,8.0,62,0.00,,---,0.00,VWS V14.01,2013-06-02 23:14:00,
2013-06-02 18:19:00,62.6,49.4,30.01,NNW,340,1.0,8.0,62,0.00,,---,0.00,VWS V14.01,2013-06-02 23:19:00,
2013-06-02 18:24:00,63.1,49.9,30.01,NNW,340,3.0,8.0,62,0.00,,---,0.00,VWS V14.01,2013-06-02 23:24:00,
2013-06-02 18:29:00,63.1,49.5,30.01,NNE,24,5.0,8.0,61,0.00,,---,0.00,VWS V14.01,2013-06-02 23:29:00,
2013-06-02 18:30:00,61.8,49.5,30.02,NE,42,1.0,9.0,64,0.00,,---,0.00,VWS V14.01,2013-06-02 23:30:00,
2013-06-02 18:34:00,63.2,49.5,30.01,NE,38,4.0,7.0,61,0.00,,---,0.00,VWS V14.01,2013-06-02 23:34:00,
2013-06-02 18:39:00,62.9,49.3,30.01,North,5,6.0,7.0,61,0.00,,---,0.00,VWS V14.01,2013-06-02 23:39:00,
2013-06-02 18:44:00,62.6,49.0,30.01,NNE,20,3.0,7.0,61,0.00,,---,0.00,VWS V14.01,2013-06-02 23:44:00,
2013-06-02 18:49:00,62.3,49.1,30.01,North,355,2.0,7.0,62,0.00,,---,0.00,VWS V14.01,2013-06-02 23:49:00,
2013-06-02 18:54:00,62.0,48.8,30.01,NE,51,2.0,7.0,62,0.00,,---,0.00,VWS V14.01,2013-06-02 23:54:00,
2013-06-02 18:59:00,61.6,48.5,30.01,North,5,0.0,7.0,62,0.00,,---,0.00,VWS V14.01,2013-06-02 23:59:00,
2013-06-02 19:00:00,62.9,49.7,30.02,NE,44,4.0,10.0,62,0.00,,---,0.00,VWS V14.01,2013-06-03 00:00:00,
2013-06-02 19:04:00,61.5,48.4,30.01,NNW,335,6.0,6.0,62,0.00,,---,0.00,VWS V14.01,2013-06-03 00:04:00,
2013-06-02 19:09:00,61.5,48.4,30.01,North,360,0.0,7.0,62,0.00,,---,0.00,VWS V14.01,2013-06-03 00:09:00,
2013-06-02 19:14:00,61.3,48.2,30.01,NNE,30,2.0,7.0,62,0.00,,---,0.00,VWS V14.01,2013-06-03 00:14:00,
2013-06-02 19:19:00,61.2,48.1,30.01,North,360,4.0,7.0,62,0.00,,---,0.00,VWS V14.01,2013-06-03 00:19:00,
2013-06-02 19:24:00,61.0,47.9,30.01,North,355,0.0,7.0,62,0.00,,---,0.00,VWS V14.01,2013-06-03 00:24:00,
2013-06-02 19:29:00,60.9,47.8,30.01,NE,37,1.0,7.0,62,0.00,,---,0.00,VWS V14.01,2013-06-03 00:29:00,
2013-06-02 19:30:00,63.1,49.5,30.01,NNE,24,2.0,8.0,61,0.00,,---,0.00,VWS V14.01,2013-06-03 00:30:00,
2013-06-02 19:34:00,60.7,47.6,30.01,NE,37,0.0,2.0,62,0.00,,---,0.00,VWS V14.01,2013-06-03 00:34:00,
2013-06-02 19:39:00,60.7,48.0,30.01,NE,37,0.0,3.0,63,0.00,,---,0.00,VWS V14.01,2013-06-03 00:39:00,
2013-06-02 19:44:00,60.5,47.9,30.01,NNE,32,0.0,4.0,63,0.00,,---,0.00,VWS V14.01,2013-06-03 00:44:00,
2013-06-02 19:49:00,60.4,47.8,30.01,NNE,32,0.0,4.0,63,0.00,,---,0.00,VWS V14.01,2013-06-03 00:49:00,
2013-06-02 19:54:00,60.2,47.6,30.01,NE,38,0.0,4.0,63,0.00,,---,0.00,VWS V14.01,2013-06-03 00:54:00,
2013-06-02 19:59:00,60.2,47.6,30.01,NE,38,2.0,4.0,63,0.00,,---,0.00,VWS V14.01,2013-06-03 00:59:00,
2013-06-02 20:00:00,61.6,48.5,30.01,North,5,2.0,7.0,62,0.00,,---,0.00,VWS V14.01,2013-06-03 01:00:00,
2013-06-02 20:04:00,60.2,47.6,30.01,NE,40,0.0,2.0,63,0.00,,---,0.00,VWS V14.01,2013-06-03 01:04:00,
2013-06-02 20:09:00,60.1,47.9,30.01,NE,40,0.0,2.0,64,0.00,,---,0.00,VWS V14.01,2013-06-03 01:09:00,
2013-06-02 20:14:00,59.9,47.7,30.01,NE,40,0.0,2.0,64,0.00,,---,0.00,VWS V14.01,2013-06-03 01:14:00,
2013-06-02 20:19:00,59.6,47.4,30.01,NE,40,0.0,2.0,64,0.00,,---,0.00,VWS V14.01,2013-06-03 01:19:00,
2013-06-02 20:24:00,59.3,47.1,30.01,NE,40,0.0,2.0,64,0.00,,---,0.00,VWS V14.01,2013-06-03 01:24:00,
2013-06-02 20:29:00,58.9,46.8,30.01,NE,40,0.0,2.0,64,0.00,,---,0.00,VWS V14.01,2013-06-03 01:29:00,
2013-06-02 20:30:00,60.9,48.2,30.01,NE,37,0.0,7.0,63,0.00,,---,0.00,VWS V14.01,2013-06-03 01:30:00,
2013-06-02 20:34:00,58.6,46.5,30.01,NE,40,0.0,0.0,64,0.00,,---,0.00,VWS V14.01,2013-06-03 01:34:00,
2013-06-02 20:39:00,58.3,46.2,30.01,NE,40,0.0,0.0,64,0.00,,---,0.00,VWS V14.01,2013-06-03 01:39:00,
2013-06-02 20:44:00,57.8,46.1,30.01,NE,40,0.0,0.0,65,0.00,,---,0.00,VWS V14.01,2013-06-03 01:44:00,
2013-06-02 20:49:00,57.5,45.8,30.01,NE,40,0.0,0.0,65,0.00,,---,0.00,VWS V14.01,2013-06-03 01:49:00,
2013-06-02 20:54:00,57.0,45.8,30.01,NE,40,0.0,0.0,66,0.00,,---,0.00,VWS V14.01,2013-06-03 01:54:00,
2013-06-02 20:59:00,56.6,45.4,30.01,NE,40,0.0,0.0,66,0.00,,---,0.00,VWS V14.01,2013-06-03 01:59:00,
2013-06-02 21:00:00,60.2,47.6,30.01,NE,38,0.0,4.0,63,0.00,,---,0.00,VWS V14.01,2013-06-03 02:00:00,
2013-06-02 21:04:00,56.0,44.8,30.01,NE,40,0.0,0.0,66,0.00,,---,0.00,VWS V14.01,2013-06-03 02:04:00,
2013-06-02 21:09:00,55.3,44.5,30.01,NE,40,0.0,0.0,67,0.00,,---,0.00,VWS V14.01,2013-06-03 02:09:00,
2013-06-02 21:14:00,54.7,44.4,30.01,NE,40,0.0,0.0,68,0.00,,---,0.00,VWS V14.01,2013-06-03 02:14:00,
2013-06-02 21:19:00,54.2,43.9,30.01,NE,40,0.0,0.0,68,0.00,,---,0.00,VWS V14.01,2013-06-03 02:19:00,
2013-06-02 21:24:00,53.8,43.5,30.01,NE,40,0.0,0.0,68,0.00,,---,0.00,VWS V14.01,2013-06-03 02:24:00,
2013-06-02 21:29:00,53.6,43.7,30.01,NE,40,0.0,0.0,69,0.00,,---,0.00,VWS V14.01,2013-06-03 02:29:00,
2013-06-02 21:30:00,58.9,46.8,30.01,NE,40,0.0,2.0,64,0.00,,---,0.00,VWS V14.01,2013-06-03 02:30:00,
2013-06-02 21:34:00,53.3,43.4,30.01,NE,40,0.0,0.0,69,0.00,,---,0.00,VWS V14.01,2013-06-03 02:34:00,
2013-06-02 21:39:00,53.1,43.2,30.01,NE,40,0.0,0.0,69,0.00,,---,0.00,VWS V14.01,2013-06-03 02:39:00,
2013-06-02 21:44:00,52.8,43.3,30.01,NE,40,0.0,0.0,70,0.00,,---,0.00,VWS V14.01,2013-06-03 02:44:00,
2013-06-02 21:49:00,52.3,42.8,30.01,NE,40,0.0,0.0,70,0.00,,---,0.00,VWS V14.01,2013-06-03 02:49:00,
2013-06-02 21:54:00,52.0,42.9,30.01,NE,40,0.0,0.0,71,0.00,,---,0.00,VWS V14.01,2013-06-03 02:54:00,
2013-06-02 21:59:00,51.9,42.8,30.01,NE,40,0.0,0.0,71,0.00,,---,0.00,VWS V14.01,2013-06-03 02:59:00,
2013-06-02 22:00:00,56.5,45.3,30.01,NE,40,0.0,0.0,66,0.00,,---,0.00,VWS V14.01,2013-06-03 03:00:00,
2013-06-02 22:04:00,51.7,43.0,30.01,NE,40,0.0,0.0,72,0.00,,---,0.00,VWS V14.01,2013-06-03 03:04:00,
2013-06-02 22:09:00,51.6,42.9,30.01,NE,40,0.0,0.0,72,0.00,,---,0.00,VWS V14.01,2013-06-03 03:09:00,
2013-06-02 22:14:00,51.3,43.0,30.01,NE,40,0.0,0.0,73,0.00,,---,0.00,VWS V14.01,2013-06-03 03:14:00,
2013-06-02 22:19:00,51.0,42.7,30.02,NE,40,0.0,0.0,73,0.00,,---,0.00,VWS V14.01,2013-06-03 03:19:00,
2013-06-02 22:24:00,50.7,42.7,30.02,NE,40,0.0,0.0,74,0.00,,---,0.00,VWS V14.01,2013-06-03 03:24:00,
2013-06-02 22:29:00,50.8,43.2,30.02,NE,40,0.0,0.0,75,0.00,,---,0.00,VWS V14.01,2013-06-03 03:29:00,
2013-06-02 22:30:00,53.5,43.6,30.01,NE,40,0.0,0.0,69,0.00,,---,0.00,VWS V14.01,2013-06-03 03:30:00,
2013-06-02 22:34:00,50.7,43.1,30.03,NE,40,0.0,0.0,75,0.00,,---,0.00,VWS V14.01,2013-06-03 03:34:00,
2013-06-02 22:39:00,50.4,42.8,30.03,NE,40,0.0,0.0,75,0.00,,---,0.00,VWS V14.01,2013-06-03 03:39:00,
2013-06-02 22:44:00,50.1,42.5,30.03,NE,40,0.0,0.0,75,0.00,,---,0.00,VWS V14.01,2013-06-03 03:44:00,
2013-06-02 22:49:00,49.8,42.2,30.02,NE,40,0.0,0.0,75,0.00,,---,0.00,VWS V14.01,2013-06-03 03:49:00,
2013-06-02 22:54:00,49.5,42.3,30.02,NE,40,0.0,0.0,76,0.00,,---,0.00,VWS V14.01,2013-06-03 03:54:00,
2013-06-02 22:59:00,49.2,42.0,30.02,NE,40,0.0,0.0,76,0.00,,---,0.00,VWS V14.01,2013-06-03 03:59:00,
2013-06-02 23:00:00,51.7,43.0,30.01,NE,40,0.0,0.0,72,0.00,,---,0.00,VWS V14.01,2013-06-03 04:00:00,
2013-06-02 23:01:00,49.1,41.9,30.02,NE,40,0.0,0.0,76,0.00,,---,0.00,VWS V14.01,2013-06-03 04:01:00,
2013-06-02 23:06:00,48.9,41.7,30.02,NE,40,0.0,0.0,76,0.00,,---,0.00,VWS V14.01,2013-06-03 04:06:00,
2013-06-02 23:11:00,48.6,41.7,30.02,NE,40,0.0,0.0,77,0.00,,---,0.00,VWS V14.01,2013-06-03 04:11:00,
2013-06-02 23:16:00,48.5,41.6,30.02,NE,40,0.0,0.0,77,0.00,,---,0.00,VWS V14.01,2013-06-03 04:16:00,
2013-06-02 23:21:00,48.3,41.4,30.02,NE,40,0.0,0.0,77,0.00,,---,0.00,VWS V14.01,2013-06-03 04:21:00,
2013-06-02 23:26:00,48.2,41.7,30.02,NE,40,0.0,0.0,78,0.00,,---,0.00,VWS V14.01,2013-06-03 04:26:00,
2013-06-02 23:30:00,50.8,43.2,30.03,NE,40,0.0,0.0,75,0.00,,---,0.00,VWS V14.01,2013-06-03 04:30:00,
2013-06-02 23:31:00,48.2,41.7,30.02,NE,40,0.0,0.0,78,0.00,,---,0.00,VWS V14.01,2013-06-03 04:31:00,
2013-06-02 23:36:00,48.0,41.5,30.02,NE,40,0.0,0.0,78,0.00,,---,0.00,VWS V14.01,2013-06-03 04:36:00,
2013-06-02 23:42:00,47.7,41.2,30.02,NE,40,0.0,0.0,78,0.00,,---,0.00,VWS V14.01,2013-06-03 04:42:00,
2013-06-02 23:47:00,47.6,41.1,30.03,NE,40,0.0,0.0,78,0.00,,---,0.00,VWS V14.01,2013-06-03 04:47:00,
2013-06-02 23:52:00,47.6,41.4,30.03,NE,40,0.0,0.0,79,0.00,,---,0.00,VWS V14.01,2013-06-03 04:52:00,
2013-06-02 23:57:00,47.4,41.2,30.03,NE,40,0.0,0.0,79,0.00,,---,0.00,VWS V14.01,2013-06-03 04:57:00,